TimeBeginning,TimeEnding,183245_PM10_PreScaled,183245_PM10_Scaled,183245_PM10_Unit,183245_PM10_Slope,183245_PM10_Offset,183245_PM10_Status,184245_PM10_PreScaled,184245_PM10_Scaled,184245_PM10_Unit,184245_PM10_Slope,184245_PM10_Offset,184245_PM10_Status,185245_PM10_PreScaled,185245_PM10_Scaled,185245_PM10_Unit,185245_PM10_Slope,185245_PM10_Offset,185245_PM10_Status,186245_PM10_PreScaled,186245_PM10_Scaled,186245_PM10_Unit,186245_PM10_Slope,186245_PM10_Offset,186245_PM10_Status,187245_PM10_PreScaled,187245_PM10_Scaled,187245_PM10_Unit,187245_PM10_Slope,187245_PM10_Offset,187245_PM10_Status,188245_PM10_PreScaled,188245_PM10_Scaled,188245_PM10_Unit,188245_PM10_Slope,188245_PM10_Offset,188245_PM10_Status,189245_PM10_PreScaled,189245_PM10_Scaled,189245_PM10_Unit,189245_PM10_Slope,189245_PM10_Offset,189245_PM10_Status,292245_PM10_PreScaled,292245_PM10_Scaled,292245_PM10_Unit,292245_PM10_Slope,292245_PM10_Offset,292245_PM10_Status
04/07/2019 07:30,04/07/2019 08:30,,,ug/m3,,,Invalid,6.015,6.015,ug/m3,1,0,Valid,,,ug/m3,,,Invalid,,,ug/m3,,,Invalid,,,ug/m3,,,Invalid,,,ug/m3,,,Invalid,,,ug/m3,,,Invalid,,,ug/m3,,,Invalid
04/07/2019 08:00,04/07/2019 09:00,,,ug/m3,,,Invalid,4.915,4.915,ug/m3,1,0,Valid,,,ug/m3,,,Invalid,,,ug/m3,,,Invalid,,,ug/m3,,,Invalid,,,ug/m3,,,Invalid,3.733,3.733,ug/m3,1,0,Valid,,,ug/m3,,,Invalid
04/07/2019 09:00,04/07/2019 10:00,3.54,3.54,ug/m3,1,0,Valid,4.233,4.233,ug/m3,1,0,Valid,,,ug/m3,,,Invalid,,,ug/m3,,,Invalid,,,ug/m3,,,Invalid,2.73,2.73,ug/m3,1,0,Valid,4.39,4.39,ug/m3,1,0,Valid,3.16,3.16,ug/m3,1,0,Valid
04/07/2019 10:00,04/07/2019 11:00,2.712,2.712,ug/m3,1,0,Valid,4.877,4.877,ug/m3,1,0,Valid,3.14,3.14,ug/m3,1,0,Valid,8.02,8.02,ug/m3,1,0,Valid,5.84,5.84,ug/m3,1,0,Valid,3.353,3.353,ug/m3,1,0,Valid,5.128,5.128,ug/m3,1,0,Valid,3.188,3.188,ug/m3,1,0,Valid
04/07/2019 11:00,04/07/2019 12:00,2.84,2.84,ug/m3,1,0,Valid,4.775,4.775,ug/m3,1,0,Valid,3.635,3.635,ug/m3,1,0,Valid,5.007,5.007,ug/m3,1,0,Valid,3.86,3.86,ug/m3,1,0,Valid,3.512,3.512,ug/m3,1,0,Valid,4.097,4.097,ug/m3,1,0,Valid,3.367,3.367,ug/m3,1,0,Valid
04/07/2019 12:00,04/07/2019 13:00,2.718,2.718,ug/m3,1,0,Valid,4.117,4.117,ug/m3,1,0,Valid,4.222,4.222,ug/m3,1,0,Valid,3.792,3.792,ug/m3,1,0,Valid,3.722,3.722,ug/m3,1,0,Valid,3.835,3.835,ug/m3,1,0,Valid,4.907,4.907,ug/m3,1,0,Valid,4.615,4.615,ug/m3,1,0,Valid
04/07/2019 13:00,04/07/2019 14:00,3.087,3.087,ug/m3,1,0,Valid,5.225,5.225,ug/m3,1,0,Valid,4.57,4.57,ug/m3,1,0,Valid,5.717,5.717,ug/m3,1,0,Valid,4.115,4.115,ug/m3,1,0,Valid,3.197,3.197,ug/m3,1,0,Valid,3.507,3.507,ug/m3,1,0,Valid,3.985,3.985,ug/m3,1,0,Valid
04/07/2019 14:00,04/07/2019 15:00,3.285,3.285,ug/m3,1,0,Valid,6.353,6.353,ug/m3,1,0,Valid,4.445,4.445,ug/m3,1,0,Valid,5.253,5.253,ug/m3,1,0,Valid,4.602,4.602,ug/m3,1,0,Valid,3.255,3.255,ug/m3,1,0,Valid,4.005,4.005,ug/m3,1,0,Valid,4.022,4.022,ug/m3,1,0,Valid
04/07/2019 15:00,04/07/2019 16:00,3.493,3.493,ug/m3,1,0,Valid,6.49,6.49,ug/m3,1,0,Valid,5.085,5.085,ug/m3,1,0,Valid,6.173,6.173,ug/m3,1,0,Valid,6.485,6.485,ug/m3,1,0,Valid,4.442,4.442,ug/m3,1,0,Valid,5.325,5.325,ug/m3,1,0,Valid,4.462,4.462,ug/m3,1,0,Valid
04/07/2019 16:00,04/07/2019 17:00,3.902,3.902,ug/m3,1,0,Valid,6.508,6.508,ug/m3,1,0,Valid,5.028,5.028,ug/m3,1,0,Valid,6.09,6.09,ug/m3,1,0,Valid,5.548,5.548,ug/m3,1,0,Valid,4.923,4.923,ug/m3,1,0,Valid,5.148,5.148,ug/m3,1,0,Valid,4.322,4.322,ug/m3,1,0,Valid
04/07/2019 17:00,04/07/2019 18:00,4.518,4.518,ug/m3,1,0,Valid,7.325,7.325,ug/m3,1,0,Valid,5.965,5.965,ug/m3,1,0,Valid,8.515,8.515,ug/m3,1,0,Valid,6.16,6.16,ug/m3,1,0,Valid,5.055,5.055,ug/m3,1,0,Valid,6.022,6.022,ug/m3,1,0,Valid,5.6,5.6,ug/m3,1,0,Valid
04/07/2019 18:00,04/07/2019 19:00,4.38,4.38,ug/m3,1,0,Valid,8.577,8.577,ug/m3,1,0,Valid,6.422,6.422,ug/m3,1,0,Valid,8.59,8.59,ug/m3,1,0,Valid,6.552,6.552,ug/m3,1,0,Valid,5.58,5.58,ug/m3,1,0,Valid,6.308,6.308,ug/m3,1,0,Valid,4.935,4.935,ug/m3,1,0,Valid
04/07/2019 19:00,04/07/2019 20:00,4.915,4.915,ug/m3,1,0,Valid,8.295,8.295,ug/m3,1,0,Valid,5.617,5.617,ug/m3,1,0,Valid,8.45,8.45,ug/m3,1,0,Valid,7.5,7.5,ug/m3,1,0,Valid,5.778,5.778,ug/m3,1,0,Valid,7.877,7.877,ug/m3,1,0,Valid,6.155,6.155,ug/m3,1,0,Valid
04/07/2019 20:00,04/07/2019 21:00,6.508,6.508,ug/m3,1,0,Valid,11.477,11.477,ug/m3,1,0,Valid,7.133,7.133,ug/m3,1,0,Valid,11.753,11.753,ug/m3,1,0,Valid,7.208,7.208,ug/m3,1,0,Valid,6.603,6.603,ug/m3,1,0,Valid,8.18,8.18,ug/m3,1,0,Valid,7.27,7.27,ug/m3,1,0,Valid
04/07/2019 21:00,04/07/2019 22:00,6.795,6.795,ug/m3,1,0,Valid,10.83,10.83,ug/m3,1,0,Valid,7.685,7.685,ug/m3,1,0,Valid,9.397,9.397,ug/m3,1,0,Valid,9.86,9.86,ug/m3,1,0,Valid,7.74,7.74,ug/m3,1,0,Valid,8.553,8.553,ug/m3,1,0,Valid,8.212,8.212,ug/m3,1,0,Valid
04/07/2019 22:00,04/07/2019 23:00,6.31,6.31,ug/m3,1,0,Valid,9.108,9.108,ug/m3,1,0,Valid,6.97,6.97,ug/m3,1,0,Valid,11.047,11.047,ug/m3,1,0,Valid,8.59,8.59,ug/m3,1,0,Valid,6.5,6.5,ug/m3,1,0,Valid,7.438,7.438,ug/m3,1,0,Valid,8.328,8.328,ug/m3,1,0,Valid
04/07/2019 23:00,05/07/2019 00:00,5.413,5.413,ug/m3,1,0,Valid,7.968,7.968,ug/m3,1,0,Valid,5.492,5.492,ug/m3,1,0,Valid,7.958,7.958,ug/m3,1,0,Valid,8.182,8.182,ug/m3,1,0,Valid,5.63,5.63,ug/m3,1,0,Valid,6.02,6.02,ug/m3,1,0,Valid,6.272,6.272,ug/m3,1,0,Valid
05/07/2019 00:00,05/07/2019 01:00,4.27,4.27,ug/m3,1,0,Valid,7.085,7.085,ug/m3,1,0,Valid,4.24,4.24,ug/m3,1,0,Valid,5.933,5.933,ug/m3,1,0,Valid,6.71,6.71,ug/m3,1,0,Valid,5.32,5.32,ug/m3,1,0,Valid,5.115,5.115,ug/m3,1,0,Valid,6.043,6.043,ug/m3,1,0,Valid
05/07/2019 01:00,05/07/2019 02:00,5.25,5.25,ug/m3,1,0,Valid,6.88,6.88,ug/m3,1,0,Valid,4.77,4.77,ug/m3,1,0,Valid,6.69,6.69,ug/m3,1,0,Valid,8.122,8.122,ug/m3,1,0,Valid,4.972,4.972,ug/m3,1,0,Valid,6.273,6.273,ug/m3,1,0,Valid,6.04,6.04,ug/m3,1,0,Valid
05/07/2019 02:00,05/07/2019 03:00,4.345,4.345,ug/m3,1,0,Valid,6.393,6.393,ug/m3,1,0,Valid,5.038,5.038,ug/m3,1,0,Valid,6.23,6.23,ug/m3,1,0,Valid,7.212,7.212,ug/m3,1,0,Valid,5.135,5.135,ug/m3,1,0,Valid,5.447,5.447,ug/m3,1,0,Valid,4.887,4.887,ug/m3,1,0,Valid
05/07/2019 03:00,05/07/2019 04:00,3.782,3.782,ug/m3,1,0,Valid,5.735,5.735,ug/m3,1,0,Valid,4.56,4.56,ug/m3,1,0,Valid,4.728,4.728,ug/m3,1,0,Valid,5.548,5.548,ug/m3,1,0,Valid,4.07,4.07,ug/m3,1,0,Valid,5.038,5.038,ug/m3,1,0,Valid,4.643,4.643,ug/m3,1,0,Valid
05/07/2019 04:00,05/07/2019 05:00,3.735,3.735,ug/m3,1,0,Valid,6.19,6.19,ug/m3,1,0,Valid,5.322,5.322,ug/m3,1,0,Valid,6.017,6.017,ug/m3,1,0,Valid,7.04,7.04,ug/m3,1,0,Valid,4.875,4.875,ug/m3,1,0,Valid,5.675,5.675,ug/m3,1,0,Valid,5.388,5.388,ug/m3,1,0,Valid
05/07/2019 05:00,05/07/2019 06:00,4.773,4.773,ug/m3,1,0,Valid,7.145,7.145,ug/m3,1,0,Valid,5.815,5.815,ug/m3,1,0,Valid,7.485,7.485,ug/m3,1,0,Valid,8.96,8.96,ug/m3,1,0,Valid,5.338,5.338,ug/m3,1,0,Valid,6.61,6.61,ug/m3,1,0,Valid,6.432,6.432,ug/m3,1,0,Valid
05/07/2019 06:00,05/07/2019 07:00,4.47,4.47,ug/m3,1,0,Valid,9.47,9.47,ug/m3,1,0,Valid,5.663,5.663,ug/m3,1,0,Valid,8.335,8.335,ug/m3,1,0,Valid,7.988,7.988,ug/m3,1,0,Valid,5.435,5.435,ug/m3,1,0,Valid,6.952,6.952,ug/m3,1,0,Valid,6.055,6.055,ug/m3,1,0,Valid
05/07/2019 07:00,05/07/2019 08:00,5.758,5.758,ug/m3,1,0,Valid,9.505,9.505,ug/m3,1,0,Valid,5.352,5.352,ug/m3,1,0,Valid,9.598,9.598,ug/m3,1,0,Valid,8.375,8.375,ug/m3,1,0,Valid,5.878,5.878,ug/m3,1,0,Valid,8.407,8.407,ug/m3,1,0,Valid,6.38,6.38,ug/m3,1,0,Valid
05/07/2019 08:00,05/07/2019 09:00,4.363,4.363,ug/m3,1,0,Valid,8.22,8.22,ug/m3,1,0,Valid,6.248,6.248,ug/m3,1,0,Valid,7.668,7.668,ug/m3,1,0,Valid,8.937,8.937,ug/m3,1,0,Valid,5.702,5.702,ug/m3,1,0,Valid,7.34,7.34,ug/m3,1,0,Valid,5.082,5.082,ug/m3,1,0,Valid
05/07/2019 09:00,05/07/2019 10:00,4.127,4.127,ug/m3,1,0,Valid,7.375,7.375,ug/m3,1,0,Valid,5.598,5.598,ug/m3,1,0,Valid,7.25,7.25,ug/m3,1,0,Valid,9.147,9.147,ug/m3,1,0,Valid,5.555,5.555,ug/m3,1,0,Valid,6.743,6.743,ug/m3,1,0,Valid,5.008,5.008,ug/m3,1,0,Valid
05/07/2019 10:00,05/07/2019 11:00,3.93,3.93,ug/m3,1,0,Valid,7.007,7.007,ug/m3,1,0,Valid,5.495,5.495,ug/m3,1,0,Valid,8.935,8.935,ug/m3,1,0,Valid,8.63,8.63,ug/m3,1,0,Valid,4.607,4.607,ug/m3,1,0,Valid,6.16,6.16,ug/m3,1,0,Valid,4.545,4.545,ug/m3,1,0,Valid
05/07/2019 11:00,05/07/2019 12:00,3.115,3.115,ug/m3,1,0,Valid,5.735,5.735,ug/m3,1,0,Valid,4.6,4.6,ug/m3,1,0,Valid,7.48,7.48,ug/m3,1,0,Valid,6.72,6.72,ug/m3,1,0,Valid,5.05,5.05,ug/m3,1,0,Valid,5.92,5.92,ug/m3,1,0,Valid,4.5,4.5,ug/m3,1,0,Valid
05/07/2019 12:00,05/07/2019 13:00,3.318,3.318,ug/m3,1,0,Valid,5.325,5.325,ug/m3,1,0,Valid,4.045,4.045,ug/m3,1,0,Valid,5.9,5.9,ug/m3,1,0,Valid,4.587,4.587,ug/m3,1,0,Valid,3.502,3.502,ug/m3,1,0,Valid,5.033,5.033,ug/m3,1,0,Valid,4.075,4.075,ug/m3,1,0,Valid
05/07/2019 13:00,05/07/2019 14:00,3.382,3.382,ug/m3,1,0,Valid,6.097,6.097,ug/m3,1,0,Valid,4.315,4.315,ug/m3,1,0,Valid,7.418,7.418,ug/m3,1,0,Valid,4.768,4.768,ug/m3,1,0,Valid,3.485,3.485,ug/m3,1,0,Valid,5.952,5.952,ug/m3,1,0,Valid,4.178,4.178,ug/m3,1,0,Valid
05/07/2019 14:00,05/07/2019 15:00,3.07,3.07,ug/m3,1,0,Valid,7.507,7.507,ug/m3,1,0,Valid,5.068,5.068,ug/m3,1,0,Valid,4.965,4.965,ug/m3,1,0,Valid,4.747,4.747,ug/m3,1,0,Valid,4.283,4.283,ug/m3,1,0,Valid,5.312,5.312,ug/m3,1,0,Valid,4.242,4.242,ug/m3,1,0,Valid
05/07/2019 15:00,05/07/2019 16:00,3.285,3.285,ug/m3,1,0,Valid,6.96,6.96,ug/m3,1,0,Valid,4.845,4.845,ug/m3,1,0,Valid,6.2,6.2,ug/m3,1,0,Valid,5.515,5.515,ug/m3,1,0,Valid,3.707,3.707,ug/m3,1,0,Valid,5.082,5.082,ug/m3,1,0,Valid,4.6,4.6,ug/m3,1,0,Valid
05/07/2019 16:00,05/07/2019 17:00,5.975,5.975,ug/m3,1,0,Valid,6.775,6.775,ug/m3,1,0,Valid,5.86,5.86,ug/m3,1,0,Valid,6.535,6.535,ug/m3,1,0,Valid,5.753,5.753,ug/m3,1,0,Valid,4.815,4.815,ug/m3,1,0,Valid,5.925,5.925,ug/m3,1,0,Valid,5.062,5.062,ug/m3,1,0,Valid
05/07/2019 17:00,05/07/2019 18:00,6.158,6.158,ug/m3,1,0,Valid,9.053,9.053,ug/m3,1,0,Valid,6.407,6.407,ug/m3,1,0,Valid,9.555,9.555,ug/m3,1,0,Valid,6.623,6.623,ug/m3,1,0,Valid,4.445,4.445,ug/m3,1,0,Valid,5.975,5.975,ug/m3,1,0,Valid,5.265,5.265,ug/m3,1,0,Valid
05/07/2019 18:00,05/07/2019 19:00,4.228,4.228,ug/m3,1,0,Valid,7.66,7.66,ug/m3,1,0,Valid,5.302,5.302,ug/m3,1,0,Valid,8.032,8.032,ug/m3,1,0,Valid,6.603,6.603,ug/m3,1,0,Valid,4.92,4.92,ug/m3,1,0,Valid,10.258,10.258,ug/m3,1,0,Valid,5.293,5.293,ug/m3,1,0,Valid
05/07/2019 19:00,05/07/2019 20:00,4.197,4.197,ug/m3,1,0,Valid,7.83,7.83,ug/m3,1,0,Valid,5.475,5.475,ug/m3,1,0,Valid,10.31,10.31,ug/m3,1,0,Valid,7.043,7.043,ug/m3,1,0,Valid,6.355,6.355,ug/m3,1,0,Valid,7.825,7.825,ug/m3,1,0,Valid,5.44,5.44,ug/m3,1,0,Valid
05/07/2019 20:00,05/07/2019 21:00,5.393,5.393,ug/m3,1,0,Valid,7.312,7.312,ug/m3,1,0,Valid,7.45,7.45,ug/m3,1,0,Valid,7.115,7.115,ug/m3,1,0,Valid,7.692,7.692,ug/m3,1,0,Valid,12.313,12.313,ug/m3,1,0,Valid,10.665,10.665,ug/m3,1,0,Valid,6.88,6.88,ug/m3,1,0,Valid
05/07/2019 21:00,05/07/2019 22:00,8.71,8.71,ug/m3,1,0,Valid,11.208,11.208,ug/m3,1,0,Valid,5.607,5.607,ug/m3,1,0,Valid,12.557,12.557,ug/m3,1,0,Valid,7.665,7.665,ug/m3,1,0,Valid,9.61,9.61,ug/m3,1,0,Valid,21.003,21.003,ug/m3,1,0,Valid,23.817,23.817,ug/m3,1,0,Valid
05/07/2019 22:00,05/07/2019 23:00,6.237,6.237,ug/m3,1,0,Valid,8.96,8.96,ug/m3,1,0,Valid,6.94,6.94,ug/m3,1,0,Valid,10.172,10.172,ug/m3,1,0,Valid,8.755,8.755,ug/m3,1,0,Valid,7.755,7.755,ug/m3,1,0,Valid,10.165,10.165,ug/m3,1,0,Valid,54.535,54.535,ug/m3,1,0,Valid
05/07/2019 23:00,06/07/2019 00:00,5.622,5.622,ug/m3,1,0,Valid,8.992,8.992,ug/m3,1,0,Valid,7.035,7.035,ug/m3,1,0,Valid,8.757,8.757,ug/m3,1,0,Valid,8.795,8.795,ug/m3,1,0,Valid,7.545,7.545,ug/m3,1,0,Valid,7.918,7.918,ug/m3,1,0,Valid,18.92,18.92,ug/m3,1,0,Valid
06/07/2019 00:00,06/07/2019 01:00,5.518,5.518,ug/m3,1,0,Valid,9.17,9.17,ug/m3,1,0,Valid,5.808,5.808,ug/m3,1,0,Valid,8.9,8.9,ug/m3,1,0,Valid,9.26,9.26,ug/m3,1,0,Valid,6.08,6.08,ug/m3,1,0,Valid,8.64,8.64,ug/m3,1,0,Valid,6.81,6.81,ug/m3,1,0,Valid
06/07/2019 01:00,06/07/2019 02:00,4.553,4.553,ug/m3,1,0,Valid,5.957,5.957,ug/m3,1,0,Valid,5.088,5.088,ug/m3,1,0,Valid,6.637,6.637,ug/m3,1,0,Valid,7.778,7.778,ug/m3,1,0,Valid,5.787,5.787,ug/m3,1,0,Valid,6.945,6.945,ug/m3,1,0,Valid,6.115,6.115,ug/m3,1,0,Valid
06/07/2019 02:00,06/07/2019 03:00,3.225,3.225,ug/m3,1,0,Valid,5.23,5.23,ug/m3,1,0,Valid,3.627,3.627,ug/m3,1,0,Valid,5.353,5.353,ug/m3,1,0,Valid,6.327,6.327,ug/m3,1,0,Valid,3.97,3.97,ug/m3,1,0,Valid,4.328,4.328,ug/m3,1,0,Valid,4.548,4.548,ug/m3,1,0,Valid
06/07/2019 03:00,06/07/2019 04:00,3.175,3.175,ug/m3,1,0,Valid,5.13,5.13,ug/m3,1,0,Valid,3.978,3.978,ug/m3,1,0,Valid,4.762,4.762,ug/m3,1,0,Valid,5.9,5.9,ug/m3,1,0,Valid,3.265,3.265,ug/m3,1,0,Valid,4.495,4.495,ug/m3,1,0,Valid,3.637,3.637,ug/m3,1,0,Valid
06/07/2019 04:00,06/07/2019 05:00,3.358,3.358,ug/m3,1,0,Valid,5.37,5.37,ug/m3,1,0,Valid,4.452,4.452,ug/m3,1,0,Valid,5.18,5.18,ug/m3,1,0,Valid,6.222,6.222,ug/m3,1,0,Valid,4.19,4.19,ug/m3,1,0,Valid,5.165,5.165,ug/m3,1,0,Valid,4.418,4.418,ug/m3,1,0,Valid
06/07/2019 05:00,06/07/2019 06:00,4.107,4.107,ug/m3,1,0,Valid,6.33,6.33,ug/m3,1,0,Valid,4.602,4.602,ug/m3,1,0,Valid,6.798,6.798,ug/m3,1,0,Valid,6.87,6.87,ug/m3,1,0,Valid,4.995,4.995,ug/m3,1,0,Valid,6.447,6.447,ug/m3,1,0,Valid,5.305,5.305,ug/m3,1,0,Valid
06/07/2019 06:00,06/07/2019 07:00,4.65,4.65,ug/m3,1,0,Valid,7.243,7.243,ug/m3,1,0,Valid,5.288,5.288,ug/m3,1,0,Valid,7.485,7.485,ug/m3,1,0,Valid,7.632,7.632,ug/m3,1,0,Valid,5.047,5.047,ug/m3,1,0,Valid,7.442,7.442,ug/m3,1,0,Valid,5.57,5.57,ug/m3,1,0,Valid
06/07/2019 07:00,06/07/2019 08:00,3.677,3.677,ug/m3,1,0,Valid,5.893,5.893,ug/m3,1,0,Valid,4.623,4.623,ug/m3,1,0,Valid,7.63,7.63,ug/m3,1,0,Valid,6.268,6.268,ug/m3,1,0,Valid,4.325,4.325,ug/m3,1,0,Valid,6.29,6.29,ug/m3,1,0,Valid,4.725,4.725,ug/m3,1,0,Valid
06/07/2019 08:00,06/07/2019 09:00,3.875,3.875,ug/m3,1,0,Valid,6.78,6.78,ug/m3,1,0,Valid,5.205,5.205,ug/m3,1,0,Valid,6.408,6.408,ug/m3,1,0,Valid,6.172,6.172,ug/m3,1,0,Valid,3.848,3.848,ug/m3,1,0,Valid,5.477,5.477,ug/m3,1,0,Valid,4.725,4.725,ug/m3,1,0,Valid
06/07/2019 09:00,06/07/2019 10:00,4.132,4.132,ug/m3,1,0,Valid,7.727,7.727,ug/m3,1,0,Valid,4.96,4.96,ug/m3,1,0,Valid,7.793,7.793,ug/m3,1,0,Valid,7.612,7.612,ug/m3,1,0,Valid,4.26,4.26,ug/m3,1,0,Valid,6.125,6.125,ug/m3,1,0,Valid,5.25,5.25,ug/m3,1,0,Valid
06/07/2019 10:00,06/07/2019 11:00,4.007,4.007,ug/m3,1,0,Valid,6.408,6.408,ug/m3,1,0,Valid,5.043,5.043,ug/m3,1,0,Valid,7.815,7.815,ug/m3,1,0,Valid,6.545,6.545,ug/m3,1,0,Valid,3.94,3.94,ug/m3,1,0,Valid,5.485,5.485,ug/m3,1,0,Valid,4.702,4.702,ug/m3,1,0,Valid
06/07/2019 11:00,06/07/2019 12:00,3.127,3.127,ug/m3,1,0,Valid,12.305,12.305,ug/m3,1,0,Valid,5.282,5.282,ug/m3,1,0,Valid,9.25,9.25,ug/m3,1,0,Valid,5.545,5.545,ug/m3,1,0,Valid,3.943,3.943,ug/m3,1,0,Valid,4.955,4.955,ug/m3,1,0,Valid,4.85,4.85,ug/m3,1,0,Valid
06/07/2019 12:00,06/07/2019 13:00,2.58,2.58,ug/m3,1,0,Valid,7.78,7.78,ug/m3,1,0,Valid,3.825,3.825,ug/m3,1,0,Valid,8.395,8.395,ug/m3,1,0,Valid,4.76,4.76,ug/m3,1,0,Valid,3.255,3.255,ug/m3,1,0,Valid,4.808,4.808,ug/m3,1,0,Valid,3.495,3.495,ug/m3,1,0,Valid
06/07/2019 13:00,06/07/2019 14:00,4.575,4.575,ug/m3,1,0,Valid,7.538,7.538,ug/m3,1,0,Valid,4.495,4.495,ug/m3,1,0,Valid,9.15,9.15,ug/m3,1,0,Valid,6.743,6.743,ug/m3,1,0,Valid,4.373,4.373,ug/m3,1,0,Valid,5.768,5.768,ug/m3,1,0,Valid,5.617,5.617,ug/m3,1,0,Valid
06/07/2019 14:00,06/07/2019 15:00,5.232,5.232,ug/m3,1,0,Valid,9.882,9.882,ug/m3,1,0,Valid,4.327,4.327,ug/m3,1,0,Valid,8.012,8.012,ug/m3,1,0,Valid,8.992,8.992,ug/m3,1,0,Valid,4.643,4.643,ug/m3,1,0,Invalid,6.685,6.685,ug/m3,1,0,Valid,6.077,6.077,ug/m3,1,0,Valid
06/07/2019 15:00,06/07/2019 16:00,4.785,4.785,ug/m3,1,0,Valid,8.088,8.088,ug/m3,1,0,Valid,4.663,4.663,ug/m3,1,0,Invalid,7.495,7.495,ug/m3,1,0,Valid,8.3,8.3,ug/m3,1,0,Valid,5.24,5.24,ug/m3,1,0,Valid,6.45,6.45,ug/m3,1,0,Valid,6.433,6.433,ug/m3,1,0,Valid
06/07/2019 16:00,06/07/2019 17:00,5.02,5.02,ug/m3,1,0,Valid,9.632,9.632,ug/m3,1,0,Valid,5.842,5.842,ug/m3,1,0,Valid,8.925,8.925,ug/m3,1,0,Valid,8.9,8.9,ug/m3,1,0,Valid,5.76,5.76,ug/m3,1,0,Valid,7.633,7.633,ug/m3,1,0,Valid,6.79,6.79,ug/m3,1,0,Valid
06/07/2019 17:00,06/07/2019 18:00,3.663,3.663,ug/m3,1,0,Valid,9.36,9.36,ug/m3,1,0,Valid,5.098,5.098,ug/m3,1,0,Valid,7.76,7.76,ug/m3,1,0,Valid,6.92,6.92,ug/m3,1,0,Valid,3.637,3.637,ug/m3,1,0,Invalid,4.778,4.778,ug/m3,1,0,Valid,4.812,4.812,ug/m3,1,0,Valid
06/07/2019 18:00,06/07/2019 19:00,4.053,4.053,ug/m3,1,0,Valid,8.073,8.073,ug/m3,1,0,Valid,4.167,4.167,ug/m3,1,0,Valid,8.01,8.01,ug/m3,1,0,Valid,7.83,7.83,ug/m3,1,0,Valid,5.28,5.28,ug/m3,1,0,Valid,6.038,6.038,ug/m3,1,0,Valid,6.59,6.59,ug/m3,1,0,Valid
06/07/2019 19:00,06/07/2019 20:00,6.732,6.732,ug/m3,1,0,Valid,7.622,7.622,ug/m3,1,0,Valid,5.47,5.47,ug/m3,1,0,Valid,9.543,9.543,ug/m3,1,0,Valid,11.595,11.595,ug/m3,1,0,Valid,6.965,6.965,ug/m3,1,0,Valid,8.485,8.485,ug/m3,1,0,Valid,7.763,7.763,ug/m3,1,0,Valid
06/07/2019 20:00,06/07/2019 21:00,10.237,10.237,ug/m3,1,0,Valid,9.562,9.562,ug/m3,1,0,Valid,6.235,6.235,ug/m3,1,0,Valid,9.695,9.695,ug/m3,1,0,Valid,13.137,13.137,ug/m3,1,0,Valid,8.29,8.29,ug/m3,1,0,Valid,8.9,8.9,ug/m3,1,0,Valid,9.238,9.238,ug/m3,1,0,Valid
06/07/2019 21:00,06/07/2019 22:00,7.357,7.357,ug/m3,1,0,Valid,9.928,9.928,ug/m3,1,0,Valid,6.962,6.962,ug/m3,1,0,Valid,10.65,10.65,ug/m3,1,0,Valid,11.822,11.822,ug/m3,1,0,Valid,6.185,6.185,ug/m3,1,0,Valid,7.598,7.598,ug/m3,1,0,Valid,8.79,8.79,ug/m3,1,0,Valid
06/07/2019 22:00,06/07/2019 23:00,6.29,6.29,ug/m3,1,0,Valid,7.615,7.615,ug/m3,1,0,Valid,6.335,6.335,ug/m3,1,0,Valid,8.078,8.078,ug/m3,1,0,Valid,10.655,10.655,ug/m3,1,0,Valid,6.645,6.645,ug/m3,1,0,Valid,6.347,6.347,ug/m3,1,0,Valid,6.035,6.035,ug/m3,1,0,Valid
06/07/2019 23:00,07/07/2019 00:00,7.04,7.04,ug/m3,1,0,Valid,8.597,8.597,ug/m3,1,0,Valid,8.66,8.66,ug/m3,1,0,Valid,8.953,8.953,ug/m3,1,0,Valid,10.805,10.805,ug/m3,1,0,Valid,6.548,6.548,ug/m3,1,0,Valid,8.228,8.228,ug/m3,1,0,Valid,9.285,9.285,ug/m3,1,0,Valid
07/07/2019 00:00,07/07/2019 01:00,8.915,8.915,ug/m3,1,0,Valid,10.497,10.497,ug/m3,1,0,Valid,9.453,9.453,ug/m3,1,0,Invalid,9.6,9.6,ug/m3,1,0,Valid,13.605,13.605,ug/m3,1,0,Valid,9.747,9.747,ug/m3,1,0,Valid,8.675,8.675,ug/m3,1,0,Valid,9.882,9.882,ug/m3,1,0,Valid
07/07/2019 01:00,07/07/2019 02:00,8.245,8.245,ug/m3,1,0,Valid,12,12,ug/m3,1,0,Valid,9.885,9.885,ug/m3,1,0,Valid,10.648,10.648,ug/m3,1,0,Valid,14.058,14.058,ug/m3,1,0,Valid,9.688,9.688,ug/m3,1,0,Valid,9.895,9.895,ug/m3,1,0,Valid,11.483,11.483,ug/m3,1,0,Valid
07/07/2019 02:00,07/07/2019 03:00,8.92,8.92,ug/m3,1,0,Valid,11.092,11.092,ug/m3,1,0,Valid,10.062,10.062,ug/m3,1,0,Valid,10.463,10.463,ug/m3,1,0,Valid,14.96,14.96,ug/m3,1,0,Valid,9.625,9.625,ug/m3,1,0,Valid,9.76,9.76,ug/m3,1,0,Valid,10.883,10.883,ug/m3,1,0,Valid
07/07/2019 03:00,07/07/2019 04:00,9.75,9.75,ug/m3,1,0,Valid,11.523,11.523,ug/m3,1,0,Valid,11.22,11.22,ug/m3,1,0,Valid,10.315,10.315,ug/m3,1,0,Valid,16.497,16.497,ug/m3,1,0,Valid,10.983,10.983,ug/m3,1,0,Valid,9.69,9.69,ug/m3,1,0,Valid,12.043,12.043,ug/m3,1,0,Valid
07/07/2019 04:00,07/07/2019 05:00,9.11,9.11,ug/m3,1,0,Valid,12.062,12.062,ug/m3,1,0,Valid,11.313,11.313,ug/m3,1,0,Invalid,9.538,9.538,ug/m3,1,0,Valid,15.178,15.178,ug/m3,1,0,Valid,11.145,11.145,ug/m3,1,0,Valid,9.267,9.267,ug/m3,1,0,Valid,12.66,12.66,ug/m3,1,0,Valid
07/07/2019 05:00,07/07/2019 06:00,7.375,7.375,ug/m3,1,0,Valid,10.793,10.793,ug/m3,1,0,Valid,9.293,9.293,ug/m3,1,0,Valid,9.795,9.795,ug/m3,1,0,Valid,13.04,13.04,ug/m3,1,0,Valid,8.577,8.577,ug/m3,1,0,Valid,9.238,9.238,ug/m3,1,0,Valid,10.735,10.735,ug/m3,1,0,Valid
07/07/2019 06:00,07/07/2019 07:00,4.972,4.972,ug/m3,1,0,Valid,6.157,6.157,ug/m3,1,0,Valid,5.74,5.74,ug/m3,1,0,Valid,5.847,5.847,ug/m3,1,0,Valid,7.675,7.675,ug/m3,1,0,Valid,5.485,5.485,ug/m3,1,0,Valid,4.912,4.912,ug/m3,1,0,Valid,5.852,5.852,ug/m3,1,0,Valid
07/07/2019 07:00,07/07/2019 08:00,2.892,2.892,ug/m3,1,0,Valid,4.945,4.945,ug/m3,1,0,Valid,4.063,4.063,ug/m3,1,0,Valid,4.6,4.6,ug/m3,1,0,Valid,5.043,5.043,ug/m3,1,0,Valid,4.155,4.155,ug/m3,1,0,Valid,3.89,3.89,ug/m3,1,0,Valid,4.512,4.512,ug/m3,1,0,Valid
07/07/2019 08:00,07/07/2019 09:00,2.37,2.37,ug/m3,1,0,Valid,4.268,4.268,ug/m3,1,0,Valid,3.733,3.733,ug/m3,1,0,Valid,4.22,4.22,ug/m3,1,0,Valid,3.848,3.848,ug/m3,1,0,Valid,2.938,2.938,ug/m3,1,0,Valid,3.332,3.332,ug/m3,1,0,Valid,3.317,3.317,ug/m3,1,0,Valid
07/07/2019 09:00,07/07/2019 10:00,2.678,2.678,ug/m3,1,0,Valid,4.597,4.597,ug/m3,1,0,Valid,3.627,3.627,ug/m3,1,0,Valid,4.37,4.37,ug/m3,1,0,Valid,3.838,3.838,ug/m3,1,0,Valid,3.25,3.25,ug/m3,1,0,Valid,3.083,3.083,ug/m3,1,0,Valid,3.863,3.863,ug/m3,1,0,Valid
07/07/2019 10:00,07/07/2019 11:00,2.665,2.665,ug/m3,1,0,Valid,4.84,4.84,ug/m3,1,0,Valid,3.695,3.695,ug/m3,1,0,Valid,4.773,4.773,ug/m3,1,0,Valid,4.22,4.22,ug/m3,1,0,Valid,3.018,3.018,ug/m3,1,0,Valid,3.175,3.175,ug/m3,1,0,Valid,3.502,3.502,ug/m3,1,0,Valid
07/07/2019 11:00,07/07/2019 12:00,2.68,2.68,ug/m3,1,0,Valid,5.04,5.04,ug/m3,1,0,Valid,3.965,3.965,ug/m3,1,0,Valid,4.51,4.51,ug/m3,1,0,Valid,3.842,3.842,ug/m3,1,0,Valid,2.945,2.945,ug/m3,1,0,Valid,2.938,2.938,ug/m3,1,0,Valid,3.59,3.59,ug/m3,1,0,Valid
07/07/2019 12:00,07/07/2019 13:00,2.257,2.257,ug/m3,1,0,Valid,4.888,4.888,ug/m3,1,0,Valid,3.627,3.627,ug/m3,1,0,Valid,5.088,5.088,ug/m3,1,0,Valid,3.03,3.03,ug/m3,1,0,Valid,9.283,9.283,ug/m3,1,0,Invalid,2.8,2.8,ug/m3,1,0,Valid,7.183,7.183,ug/m3,1,0,Valid
07/07/2019 13:00,07/07/2019 14:00,1.492,1.492,ug/m3,1,0,Valid,4.152,4.152,ug/m3,1,0,Valid,2.92,2.92,ug/m3,1,0,Valid,4.675,4.675,ug/m3,1,0,Valid,2.502,2.502,ug/m3,1,0,Valid,2.335,2.335,ug/m3,1,0,Valid,2.45,2.45,ug/m3,1,0,Valid,3.903,3.903,ug/m3,1,0,Valid
07/07/2019 14:00,07/07/2019 15:00,1.637,1.637,ug/m3,1,0,Valid,4.35,4.35,ug/m3,1,0,Valid,2.975,2.975,ug/m3,1,0,Valid,4.532,4.532,ug/m3,1,0,Valid,2.795,2.795,ug/m3,1,0,Valid,2.03,2.03,ug/m3,1,0,Valid,2.652,2.652,ug/m3,1,0,Valid,3.465,3.465,ug/m3,1,0,Valid
07/07/2019 15:00,07/07/2019 16:00,1.502,1.502,ug/m3,1,0,Valid,4.353,4.353,ug/m3,1,0,Valid,2.81,2.81,ug/m3,1,0,Valid,5.387,5.387,ug/m3,1,0,Valid,2.58,2.58,ug/m3,1,0,Valid,2.378,2.378,ug/m3,1,0,Valid,2.757,2.757,ug/m3,1,0,Valid,2.735,2.735,ug/m3,1,0,Valid
07/07/2019 16:00,07/07/2019 17:00,1.42,1.42,ug/m3,1,0,Valid,4.018,4.018,ug/m3,1,0,Valid,3.127,3.127,ug/m3,1,0,Valid,5.082,5.082,ug/m3,1,0,Valid,2.715,2.715,ug/m3,1,0,Valid,2.043,2.043,ug/m3,1,0,Valid,1.972,1.972,ug/m3,1,0,Valid,2.652,2.652,ug/m3,1,0,Valid
07/07/2019 17:00,07/07/2019 18:00,2.885,2.885,ug/m3,1,0,Valid,5.658,5.658,ug/m3,1,0,Valid,4.21,4.21,ug/m3,1,0,Valid,6.12,6.12,ug/m3,1,0,Valid,5.055,5.055,ug/m3,1,0,Valid,3.29,3.29,ug/m3,1,0,Valid,3.625,3.625,ug/m3,1,0,Valid,4.49,4.49,ug/m3,1,0,Valid
07/07/2019 18:00,07/07/2019 19:00,3.1,3.1,ug/m3,1,0,Valid,4.515,4.515,ug/m3,1,0,Valid,3.64,3.64,ug/m3,1,0,Valid,4.387,4.387,ug/m3,1,0,Valid,4.29,4.29,ug/m3,1,0,Valid,2.783,2.783,ug/m3,1,0,Valid,4.922,4.922,ug/m3,1,0,Valid,3.448,3.448,ug/m3,1,0,Valid
07/07/2019 19:00,07/07/2019 20:00,2.73,2.73,ug/m3,1,0,Valid,4.18,4.18,ug/m3,1,0,Valid,3.31,3.31,ug/m3,1,0,Valid,4.605,4.605,ug/m3,1,0,Valid,3.67,3.67,ug/m3,1,0,Valid,2.99,2.99,ug/m3,1,0,Valid,4.547,4.547,ug/m3,1,0,Valid,2.977,2.977,ug/m3,1,0,Valid
07/07/2019 20:00,07/07/2019 21:00,3.088,3.088,ug/m3,1,0,Valid,3.997,3.997,ug/m3,1,0,Valid,4.408,4.408,ug/m3,1,0,Valid,5.495,5.495,ug/m3,1,0,Valid,4.045,4.045,ug/m3,1,0,Valid,2.483,2.483,ug/m3,1,0,Valid,4.367,4.367,ug/m3,1,0,Valid,3.235,3.235,ug/m3,1,0,Valid
07/07/2019 21:00,07/07/2019 22:00,2.512,2.512,ug/m3,1,0,Valid,3.067,3.067,ug/m3,1,0,Valid,3.013,3.013,ug/m3,1,0,Valid,4.255,4.255,ug/m3,1,0,Valid,3.585,3.585,ug/m3,1,0,Valid,2.903,2.903,ug/m3,1,0,Valid,3.935,3.935,ug/m3,1,0,Valid,3.175,3.175,ug/m3,1,0,Valid
07/07/2019 22:00,07/07/2019 23:00,2.495,2.495,ug/m3,1,0,Valid,4.507,4.507,ug/m3,1,0,Valid,3.565,3.565,ug/m3,1,0,Valid,5.82,5.82,ug/m3,1,0,Valid,4.803,4.803,ug/m3,1,0,Valid,3.367,3.367,ug/m3,1,0,Valid,3.477,3.477,ug/m3,1,0,Valid,3.578,3.578,ug/m3,1,0,Valid
07/07/2019 23:00,08/07/2019 00:00,3.015,3.015,ug/m3,1,0,Valid,3.645,3.645,ug/m3,1,0,Valid,3.45,3.45,ug/m3,1,0,Valid,4.1,4.1,ug/m3,1,0,Valid,4.855,4.855,ug/m3,1,0,Valid,3.58,3.58,ug/m3,1,0,Valid,3.915,3.915,ug/m3,1,0,Valid,3.838,3.838,ug/m3,1,0,Valid
08/07/2019 00:00,08/07/2019 01:00,3.088,3.088,ug/m3,1,0,Valid,4.038,4.038,ug/m3,1,0,Valid,3.01,3.01,ug/m3,1,0,Valid,4.165,4.165,ug/m3,1,0,Valid,4.603,4.603,ug/m3,1,0,Valid,3.197,3.197,ug/m3,1,0,Valid,4.11,4.11,ug/m3,1,0,Valid,3.352,3.352,ug/m3,1,0,Valid